Погода в Даниловке

Погода в Даниловке : погода сейчас, прогноз погоды и архив. Всё, что Вы хотите узнать о погоде в Даниловке!

Хотите узнать прогноз погоды в Даниловке? Тогда Вам сюда: Погода в Даниловке

Поиск расширенной информации на нашем сайте:

Полезная информация: фильтр с ионообменной смолой для умягчения воды

Другие новости

Новости СМИ2

Главная страница сайта

Новости сайта

02.10.2013

Напоминаем, что на нашем новом сайте вы можете получить высокодетализированные прогнозы погоды по пунктам России, СНГ и мира (включающие важные для авиации метеовеличины, такие как направление и скорость ветра, видимость, явления погоды, количество и форма облачности, нижняя и верхняя граница облачности), а также ознакомиться с разнообразными материалами по авиационной метеорологии и подборкой полезных ссылок на эту тему.

Сайт Метеоцентр.Азия посвящён разработке технологий оптимизации авиаметеорологического обслуживания, включая проектирование и перспективное создание нескольких автоматизированных авиаметеорологических систем:
- система выпуска высокодетальных прогностических карт явлений погоды для нижнего воздушного пространства по России и ближнему зарубежью;
- система верификации прогнозов TAF (выпускаемых синоптиками официальных АМСГ РФ и ближнего зарубежья) и AUTOTAF (выпускаемых сайтом Метеоцентр.Азия) - выявление ошибок, онлайн-сопоставление с фактической погодой METAR, автоматическое внесение коррективов в прогнозы при резком отклонении фактической погоды от прогноза, подсчёт оправдываемости прогнозов по элементам и в целом;
- система обработки, анализа и отображения авиаметеорологической информации для применения провайдерами метеорологической информации.

Рекомендуем: http://2-sklad.ru/ мастертекс 500мл пена монтажная купить.

Погода в Даниловке - сегодня

Время (UTC), дата Ветер
(°,м/с) 
Видим.   Явления Облачность Т
(°С)
Тd
(°С)
f(%) Тe
(°С)
Pmin
(гПа)
dP
(гПа)
Po
(мм)
O2
(г/м3)
Тmin Tmax R s Состояние
почвы
21 22.03.17 050 (СВ) 20000 м    10/10 600 м кучево-дожд. 
[Cb calv]
+0 -3.1 80 -1  1021.9  0.5  757  305           
00 23.03.17 070 (В) 20000 м    10/10 600 м кучево-дожд. 
[Cb calv]
-0.4 -3.1 82 -1  1022.2  0.3  757  306           
03 23.03.17 060 (СВ) 20000 м    10/10 600 м кучево-дожд. 
[Cb calv]
-0.6 -3 84 1023.1  0.9  758  306  -0.6         
06 23.03.17 080 (В) 4000 м  дымка  10/10 600 м 
[Sc]
+0.3 -1.7 86 +1  1023.9  0.8  758  305           
09 23.03.17 170 (Ю) 20000 м    10/10 600 м 
[Sc]
+3.3 -1.1 73 +4  1023.9  0.1  758  302           
12 23.03.17 170 (Ю) 20000 м    10/10 600 м 
[Sc]
+5.3 +0.1 69 +5  1023.7  -0.1  758  300           
15 23.03.17 200 (Ю) 20000 м    9/9 600 м 
[Sc]
+4.5 +0.3 74 +4  1024.1  0.4  758  301    +5.5       
18 23.03.17 180 (Ю) 20000 м    10/10 600 м 
[Sc]
+3.1 +0.8 85 +3  1024.8  0.6  759  302           
21 23.03.17 190 (Ю) 20000 м  в посл. час ливневой дождь  10/10 300 м кучево-дожд. 
[Cb calv]
+3.6 +1.3 85 +3  1024.7  759  302           
00 24.03.17 210 (ЮЗ) 4000 м  слаб. ливневой дождь  10/10 300 м кучево-дожд. 
[Cb calv]
+3.6 +2.3 91 +2  1024.6  -0.2  759  301           
03 24.03.17 180 (Ю) 2000 м  слаб. дождь{ливн. осадки}  10/10 300 м 
[Frnb|Ns]
+3.4 +2.7 95 +4  1025.2  0.7  759  302  +2.7       
06 24.03.17 170 (Ю) 2000 м  слаб. дождь{ливн. осадки}  10/10 300 м 
[Frnb|Ns]
+4.5 +3.8 95 +5  1025.5  0.3  760  301           
09 24.03.17 150 (ЮВ) 4000 м  дымка{дождь}  10/10 300 м 
[Sc]
+6.3 +4.8 90 +6  1024.7  -0.7  759  298           
12 24.03.17 170 (Ю) 20000 м  {дождь}  10/10 600 м 
[Sc]
+7.5 +5.6 88 +7  1022.6  -2.1  757  296           
15 24.03.17 190 (Ю) 4{11}  20000 м    10/10 600 м 
[Sc]
+7.5 +3.9 78 +6  1020.2  -2.3  756  296    +8.9     
18 24.03.17 190 (Ю) 20000 м  в посл. час дождь  10/10 600 м 
[Sc]
+6 +3.6 85 +4  1018.5  -1.8  754  297           
21 24.03.17 200 (Ю) 4{10}  10 км  слаб. дождь  10/10 300 м 
[Frnb|Ns]
+6.3 +4.8 90 +5  1015.5  -2.9  752  295           
00 25.03.17 190 (Ю) 5{10}  4000 м  слаб. дождь  10/10 300 м 
[Frnb|Ns]
+6.6 +5.5 93 +5  1012.1  -3.3  750  294           
03 25.03.17 210 (ЮЗ) 5{10}  4000 м  слаб. дождь  10/10 300 м 
[Frnb|Ns]
+6.5 +5.5 93 +5  1009.4  -2.6  748  293  +5.9       
06 25.03.17 310 (СЗ) 5{11}  10 км  слаб. дождь  10/10 300 м 
[Frnb|Ns]
+4 +2.5 90 +2  1009.4  -0.1  748  296  +4         
09 25.03.17 310 (СЗ) 5-10{10}  20000 м  {ливн. осадки, дождь}  10/10 300 м кучево-дожд. 
[Cb calv]
+4.6 +1.2 79 +2  1010.6  1.2  749  296           
12 25.03.17 320 (СЗ) 4{12}  20000 м  {ливн. осадки, дождь}  9/9 600 м кучево-дожд. 
[Cb calv]
+4.5 -2.1 62 +3  1011.9  1.3  749  297           
15 25.03.17 320 (СЗ) 20000 м    10/4 600 м кучево-дожд., верхняя 
[Cb calv|Cs]
+3.4 -4.5 56 +1  1013.2  1.2  750  299    +6.8     
18 25.03.17 310 (СЗ) 20000 м    ясно 
-1.8 -4.3 83 -1  1015.3  1.8  752  305           
21 25.03.17 260 (З) 20000 м    ясно 
-4.2 -5.5 91 -4  1016.3  0.9  752  309           
Время (UTC), дата Ветер
(°,м/с) 
Видим.   Явления Облачность Т
(°С)
Тd
(°С)
f(%) Тe
(°С)
Pmin
(гПа)
dP
(гПа)
Po
(мм)
O2
(г/м3)
Тmin Tmax R s Состояние
почвы

Для получения пояснительной информации подведите курсор к названию столбца.

ПОГОДА в Даниловке - архив

Всё, что Вы хотите узнать о погоде в Даниловке - удобно и подробно!

Выберите нужную дату (начиная с 1 января 2015* года) и нажмите кнопку "Найти".
Будут отображены архивные сводки погоды по пункту Даниловка, начиная с указанной даты.


Отображать данные в формате CSV (для использования в таблицах Excel)


Внимание! Наш архив погоды предназначен исключительно для личного некоммерческого использования в познавательных целях. Если Вам необходимы официальные справки о состоянии погоды (для производственных, юридических, коммерческих и т.п. целей), обращайтесь в органы Росгидромета.

*Примечание: данная дата относится к архиву по метеостанциям СССР (Россия, СНГ, Балтия).
Архив по метеостанциям Зарубежной Европы и Азии (кроме Китая) хранится 10 дней, по другим регионам земного шара (Китай, Африка, Америка, Австралия, Океания) - 1 день.

Даниловка - район местоположения метеостанции


Название, широта, долгота, высота метеостанции:
Даниловка 50.4°ш. 44.1°д. 102 м над ур. моря [Российская Федерация]

Дополнительная информация

В oтличие oт бoльшинства пoгoдных сайтoв мы публикуем пoдрoбную метеoинфoрмацию в детальнoм прoфессиoнальнoм фoрмате.

Характеристики температуры и влажнoсти вoздуха измеряются на высoте 2 м в тени вдали oт зданий и деревьев.
Скoрoсть ветра измеряется на высoте 10 м (на урoвне рoста челoвека скoрoсть ветра ниже в 1.5-2 раза). Если метеoстанция нахoдится в гoрoде или в лесу, тo скoрoсть ветра занижена на 2-4 м/с пo сравнению с oткрытым местoм. Скoрoсть ветра над акватoриями крупных рек и oзёр, а также на вершинах хoлмoв на 2-5 м/с выше, чем в oбычных услoвиях.
Атмoсфернoе давление в разных тoчках местнoсти мoжет значительнo oтличаться oт давления на метеoстанции, в зависимoсти oт услoвий рельефа (при пoдъёме на 10 м давление пoнижается примернo на 1 мм рт.ст.).